TRA5U EHAM-LGSM

Flight info

Callsign TRA5U
Flight time 3h 2m
Altitude 35000
Route EDUPO Z739 MISGO DCT TIVUN DCT ESAMA DCT OSBIT DCT TENLO DCT LAMSI DCT ZINPE DCT VEBAR DCT TORTO DCT VABEK UL603 OLOTA DCT RUGAS DCT GIKAS UL608 MES L609 URNIL
Aircraft A21N/M-SBDE2E3FGHIJ1J5M1P2RWXYZ/LB1D1G1

Departure

Time 2026-05-08 07:51
Airport Amsterdam Airport Schiphol (EHAM)

Arrival

Time 2026-05-08 10:53
Airport Samos Airport (LGSM)
Time Latitude Longitude Altitude Speed Heading
2026-05-08 07:01 52.30999 4.77239 137 ft 0 kts 182°
2026-05-08 07:38 52.31021 4.77239 4 ft 4 kts 176°
2026-05-08 07:38 52.31048 4.77236 4 ft 4 kts 179°
2026-05-08 07:38 52.31067 4.77240 4 ft 4 kts 242°
2026-05-08 07:38 52.31073 4.77276 4 ft 4 kts 259°
2026-05-08 07:39 52.31075 4.77286 4 ft 2 kts 258°
2026-05-08 07:42 52.31074 4.77281 4 ft 2 kts 261°
2026-05-08 07:42 52.31074 4.77245 4 ft 5 kts 273°
2026-05-08 07:43 52.31077 4.77177 4 ft 5 kts 274°
2026-05-08 07:43 52.31079 4.77107 4 ft 7 kts 273°
2026-05-08 07:43 52.31083 4.77011 4 ft 9 kts 274°
2026-05-08 07:43 52.31126 4.76934 4 ft 11 kts 353°
2026-05-08 07:44 52.31196 4.76990 4 ft 12 kts 35°
2026-05-08 07:44 52.31270 4.77070 4 ft 13 kts 33°
2026-05-08 07:44 52.31350 4.77156 4 ft 14 kts 33°
2026-05-08 07:44 52.31446 4.77193 4 ft 15 kts
2026-05-08 07:45 52.31541 4.77195 4 ft 14 kts 344°
2026-05-08 07:45 52.31567 4.77055 4 ft 15 kts 266°
2026-05-08 07:45 52.31561 4.76879 4 ft 16 kts 266°
2026-05-08 07:45 52.31554 4.76691 4 ft 17 kts 267°
2026-05-08 07:46 52.31548 4.76493 5 ft 18 kts 267°
2026-05-08 07:46 52.31541 4.76283 4 ft 19 kts 266°
2026-05-08 07:46 52.31533 4.76067 5 ft 20 kts 266°
2026-05-08 07:46 52.31525 4.75837 4 ft 21 kts 266°
2026-05-08 07:47 52.31516 4.75600 4 ft 21 kts 266°
2026-05-08 07:47 52.31508 4.75368 4 ft 17 kts 266°
2026-05-08 07:47 52.31501 4.75168 4 ft 18 kts 267°
2026-05-08 07:47 52.31495 4.74963 4 ft 19 kts 267°
2026-05-08 07:48 52.31489 4.74767 4 ft 11 kts 266°
2026-05-08 07:48 52.31528 4.74665 4 ft 13 kts 349°
2026-05-08 07:48 52.31617 4.74665 5 ft 12 kts
2026-05-08 07:48 52.31666 4.74714 5 ft 9 kts 80°
2026-05-08 07:49 52.31668 4.74761 5 ft 0 kts 87°
2026-05-08 07:50 52.31668 4.74766 5 ft 5 kts 87°
2026-05-08 07:50 52.31682 4.75192 3 ft 72 kts 86°
2026-05-08 07:50 52.31722 4.76352 4 ft 130 kts 86°
2026-05-08 07:51 52.31778 4.78089 47 ft 169 kts 88°
2026-05-08 07:51 52.31825 4.80009 604 ft 168 kts 87°
2026-05-08 07:51 52.31894 4.81916 1256 ft 171 kts 86°
2026-05-08 07:51 52.31994 4.83957 1669 ft 189 kts 86°
2026-05-08 07:52 52.32093 4.86197 2194 ft 205 kts 91°
2026-05-08 07:52 52.31732 4.88599 2479 ft 235 kts 116°
2026-05-08 07:52 52.30998 4.91100 3044 ft 251 kts 114°
2026-05-08 07:52 52.30278 4.93697 3867 ft 256 kts 114°
2026-05-08 07:53 52.29565 4.96393 4717 ft 260 kts 110°
2026-05-08 07:53 52.29017 4.99221 5570 ft 263 kts 105°
2026-05-08 07:53 52.28517 5.02111 6409 ft 266 kts 105°
2026-05-08 07:53 52.28011 5.05046 7173 ft 270 kts 106°
2026-05-08 07:54 52.27498 5.08020 7950 ft 274 kts 106°
2026-05-08 07:54 52.26973 5.11043 8739 ft 279 kts 107°
2026-05-08 07:54 52.26438 5.14114 9533 ft 283 kts 107°
2026-05-08 07:54 52.25892 5.17239 10247 ft 290 kts 107°
2026-05-08 07:55 52.25316 5.20513 10622 ft 310 kts 107°
2026-05-08 07:55 52.24692 5.24009 10918 ft 330 kts 109°
2026-05-08 07:55 52.23705 5.27437 11441 ft 339 kts 124°
2026-05-08 07:55 52.22355 5.30614 12165 ft 343 kts 127°
2026-05-08 07:56 52.20950 5.33781 12920 ft 346 kts 127°
2026-05-08 07:56 52.19534 5.36980 13657 ft 350 kts 127°
2026-05-08 07:56 52.18109 5.40225 14330 ft 354 kts 127°
2026-05-08 07:56 52.16668 5.43519 14965 ft 359 kts 127°
2026-05-08 07:57 52.15212 5.46849 15560 ft 363 kts 127°
2026-05-08 07:57 52.13741 5.50222 16190 ft 368 kts 126°
2026-05-08 07:57 52.12252 5.53635 16829 ft 371 kts 127°
2026-05-08 07:57 52.10748 5.57075 17448 ft 375 kts 127°
2026-05-08 07:58 52.09219 5.60569 18061 ft 380 kts 127°
2026-05-08 07:58 52.07680 5.64073 18633 ft 384 kts 127°
2026-05-08 07:58 52.06127 5.67557 19156 ft 386 kts 129°
2026-05-08 07:58 52.04395 5.70921 19687 ft 389 kts 132°
2026-05-08 07:59 52.02611 5.74230 20214 ft 391 kts 133°
2026-05-08 07:59 52.00803 5.77567 20733 ft 394 kts 133°
2026-05-08 07:59 51.98992 5.80921 21250 ft 397 kts 133°
2026-05-08 07:59 51.97168 5.84306 21763 ft 399 kts 133°
2026-05-08 08:00 51.95336 5.87729 22271 ft 402 kts 133°
2026-05-08 08:00 51.93497 5.91164 22779 ft 405 kts 133°
2026-05-08 08:00 51.91642 5.94629 23283 ft 408 kts 133°
2026-05-08 08:00 51.89776 5.98101 23764 ft 411 kts 133°
2026-05-08 08:01 51.87892 6.01605 24162 ft 414 kts 133°
2026-05-08 08:01 51.85998 6.05121 24578 ft 416 kts 133°
2026-05-08 08:01 51.84080 6.08663 24993 ft 419 kts 133°
2026-05-08 08:01 51.82152 6.12209 25393 ft 421 kts 133°
2026-05-08 08:02 51.80214 6.15766 25787 ft 423 kts 133°
2026-05-08 08:02 51.78915 6.18143 26047 ft 425 kts 133°
2026-05-08 08:02 51.76312 6.22901 26552 ft 428 kts 133°
2026-05-08 08:02 51.74982 6.25335 26811 ft 430 kts 133°
2026-05-08 08:03 51.72997 6.28959 27187 ft 432 kts 133°
2026-05-08 08:03 51.70342 6.33787 27647 ft 435 kts 133°
2026-05-08 08:03 51.68329 6.37443 27999 ft 438 kts 134°
2026-05-08 08:03 51.66305 6.41117 28332 ft 440 kts 134°
2026-05-08 08:04 51.64934 6.43611 28559 ft 441 kts 134°
2026-05-08 08:04 51.62914 6.47274 28868 ft 443 kts 134°
2026-05-08 08:04 51.60838 6.51037 29192 ft 445 kts 134°
2026-05-08 08:04 51.58772 6.54767 29509 ft 447 kts 134°
2026-05-08 08:05 51.56724 6.58457 29823 ft 450 kts 134°
2026-05-08 08:05 51.54636 6.62227 30140 ft 452 kts 134°
2026-05-08 08:05 51.52541 6.65998 30407 ft 453 kts 134°
2026-05-08 08:05 51.50441 6.69764 30654 ft 455 kts 134°
2026-05-08 08:06 51.48319 6.73565 30912 ft 457 kts 134°
2026-05-08 08:06 51.46186 6.77382 31145 ft 459 kts 134°
2026-05-08 08:06 51.44058 6.81183 31435 ft 459 kts 134°
2026-05-08 08:06 51.41925 6.84984 31760 ft 458 kts 134°
2026-05-08 08:07 51.39897 6.88926 32036 ft 459 kts 128°
2026-05-08 08:07 51.38080 6.93147 32344 ft 460 kts 126°
2026-05-08 08:07 51.36287 6.97381 32643 ft 459 kts 126°
2026-05-08 08:07 51.34497 7.01594 32895 ft 460 kts 127°
2026-05-08 08:08 51.32688 7.05826 33179 ft 459 kts 127°
2026-05-08 08:08 51.30888 7.10034 33448 ft 459 kts 127°
2026-05-08 08:08 51.29088 7.14241 33708 ft 458 kts 127°
2026-05-08 08:08 51.27291 7.18435 33943 ft 459 kts 127°
2026-05-08 08:09 51.25477 7.22644 34164 ft 459 kts 127°
2026-05-08 08:09 51.23671 7.26823 34347 ft 458 kts 127°
2026-05-08 08:09 51.21860 7.31010 34527 ft 459 kts 127°
2026-05-08 08:09 51.20050 7.35204 34696 ft 459 kts 127°
2026-05-08 08:10 51.18240 7.39389 34873 ft 459 kts 127°
2026-05-08 08:10 51.16425 7.43572 35042 ft 459 kts 127°
2026-05-08 08:10 51.14604 7.47761 35170 ft 460 kts 127°
2026-05-08 08:11 51.10964 7.56104 35161 ft 458 kts 127°
2026-05-08 08:11 51.07318 7.64438 35131 ft 460 kts 127°
2026-05-08 08:12 51.03667 7.72795 35140 ft 460 kts 127°
2026-05-08 08:12 51.00006 7.81131 35134 ft 460 kts 127°
2026-05-08 08:13 50.96330 7.89456 35138 ft 460 kts 127°
2026-05-08 08:13 50.92596 7.97706 35135 ft 459 kts 133°
2026-05-08 08:14 50.88148 8.04888 35136 ft 457 kts 139°
2026-05-08 08:14 50.83570 8.11741 35151 ft 456 kts 139°
2026-05-08 08:15 50.78978 8.18685 35149 ft 457 kts 139°
2026-05-08 08:15 50.74399 8.25645 35140 ft 457 kts 139°
2026-05-08 08:16 50.69803 8.32596 35138 ft 457 kts 139°
2026-05-08 08:16 50.65220 8.39522 35136 ft 457 kts 139°
2026-05-08 08:17 50.60622 8.46441 35155 ft 457 kts 139°
2026-05-08 08:17 50.56018 8.53352 35145 ft 457 kts 139°
2026-05-08 08:18 50.51407 8.60265 35143 ft 458 kts 139°
2026-05-08 08:18 50.46786 8.67150 35147 ft 458 kts 139°
2026-05-08 08:19 50.42155 8.74043 35136 ft 458 kts 139°
2026-05-08 08:19 50.37560 8.80877 35146 ft 458 kts 139°
2026-05-08 08:20 50.33410 8.88449 35129 ft 465 kts 121°
2026-05-08 08:20 50.30679 8.97657 35136 ft 466 kts 116°
2026-05-08 08:21 50.28052 9.06949 35129 ft 467 kts 116°
2026-05-08 08:21 50.25373 9.16194 35137 ft 466 kts 117°
2026-05-08 08:22 50.22665 9.25396 35126 ft 466 kts 117°
2026-05-08 08:22 50.19962 9.34605 35130 ft 467 kts 117°
2026-05-08 08:23 50.17253 9.43808 35129 ft 467 kts 117°
2026-05-08 08:23 50.14535 9.53000 35128 ft 466 kts 117°
2026-05-08 08:24 50.11828 9.62132 35125 ft 466 kts 117°
2026-05-08 08:24 50.09095 9.71305 35122 ft 467 kts 117°
2026-05-08 08:25 50.06168 9.80323 35127 ft 464 kts 125°
2026-05-08 08:25 50.02626 9.88722 35127 ft 464 kts 126°
2026-05-08 08:26 49.99065 9.97087 35115 ft 464 kts 126°
2026-05-08 08:26 49.95510 10.05455 35137 ft 463 kts 126°
2026-05-08 08:27 49.91936 10.13853 35137 ft 466 kts 126°
2026-05-08 08:27 49.88357 10.22233 35139 ft 466 kts 126°
2026-05-08 08:28 49.84776 10.30595 35144 ft 465 kts 126°
2026-05-08 08:28 49.81222 10.38884 35142 ft 465 kts 126°
2026-05-08 08:29 49.77629 10.47213 35135 ft 465 kts 126°
2026-05-08 08:29 49.74022 10.55543 35138 ft 466 kts 127°
2026-05-08 08:30 49.70406 10.63869 35124 ft 466 kts 127°
2026-05-08 08:30 49.64991 10.76282 35141 ft 464 kts 127°
2026-05-08 08:31 49.61380 10.84542 35134 ft 464 kts 127°
2026-05-08 08:31 49.57747 10.92808 35138 ft 466 kts 127°
2026-05-08 08:32 49.54107 11.01075 35144 ft 466 kts 127°
2026-05-08 08:32 49.50861 11.09725 35139 ft 469 kts 119°
2026-05-08 08:33 49.47952 11.18658 35143 ft 469 kts 119°
2026-05-08 08:33 49.44999 11.27637 35119 ft 470 kts 119°
2026-05-08 08:34 49.42035 11.36585 35126 ft 469 kts 120°
2026-05-08 08:34 49.39078 11.45516 35121 ft 468 kts 120°
2026-05-08 08:35 49.36117 11.54397 35125 ft 467 kts 120°
2026-05-08 08:35 49.33162 11.63241 35127 ft 467 kts 120°
2026-05-08 08:36 49.30184 11.72132 35131 ft 469 kts 120°
2026-05-08 08:36 49.27196 11.81017 35130 ft 469 kts 120°
2026-05-08 08:37 49.24202 11.89883 35134 ft 469 kts 120°
2026-05-08 08:37 49.21204 11.98739 35129 ft 469 kts 120°
2026-05-08 08:38 49.18217 12.07537 35123 ft 470 kts 120°
2026-05-08 08:38 49.15193 12.16407 35128 ft 470 kts 120°
2026-05-08 08:39 49.12156 12.25256 35130 ft 470 kts 120°
2026-05-08 08:39 49.09120 12.34105 35122 ft 470 kts 121°
2026-05-08 08:40 49.06081 12.42921 35109 ft 467 kts 121°
2026-05-08 08:40 49.03041 12.51705 35116 ft 469 kts 121°
2026-05-08 08:41 48.99994 12.60496 35117 ft 469 kts 121°
2026-05-08 08:41 48.96950 12.69236 35118 ft 469 kts 121°
2026-05-08 08:42 48.93889 12.77986 35114 ft 469 kts 121°
2026-05-08 08:42 48.90822 12.86727 35114 ft 469 kts 121°
2026-05-08 08:43 48.87749 12.95479 35110 ft 468 kts 121°
2026-05-08 08:43 48.84673 13.04187 35109 ft 468 kts 121°
2026-05-08 08:44 48.81592 13.12902 35111 ft 468 kts 121°
2026-05-08 08:44 48.78506 13.21598 35102 ft 469 kts 121°
2026-05-08 08:45 48.75400 13.30306 35107 ft 469 kts 122°
2026-05-08 08:45 48.72317 13.38925 35104 ft 467 kts 122°
2026-05-08 08:46 48.69210 13.47570 35107 ft 467 kts 122°
2026-05-08 08:46 48.66601 13.54788 35098 ft 466 kts 123°
2026-05-08 08:47 48.64771 13.58795 35093 ft 461 kts 134°
2026-05-08 08:47 48.62518 13.62222 35106 ft 459 kts 142°
2026-05-08 08:47 48.57707 13.68478 35102 ft 458 kts 143°
2026-05-08 08:48 48.52875 13.74762 35097 ft 459 kts 143°
2026-05-08 08:48 48.48054 13.81062 35099 ft 458 kts 143°
2026-05-08 08:49 48.43240 13.87353 35096 ft 457 kts 143°
2026-05-08 08:49 48.38420 13.93650 35099 ft 460 kts 143°
2026-05-08 08:50 48.33591 13.99938 35100 ft 460 kts 143°
2026-05-08 08:50 48.28779 14.06166 35101 ft 460 kts 143°
2026-05-08 08:51 48.23938 14.12430 35108 ft 460 kts 144°
2026-05-08 08:51 48.19085 14.18701 35100 ft 460 kts 144°
2026-05-08 08:52 48.14219 14.24964 35098 ft 461 kts 144°
2026-05-08 08:52 48.09349 14.31221 35112 ft 462 kts 144°
2026-05-08 08:53 48.04467 14.37478 35116 ft 462 kts 144°
2026-05-08 08:53 47.99583 14.43689 35102 ft 461 kts 144°
2026-05-08 08:54 47.94699 14.49913 35100 ft 461 kts 144°
2026-05-08 08:54 47.89811 14.56122 35106 ft 462 kts 144°
2026-05-08 08:55 47.84915 14.62337 35105 ft 462 kts 144°
2026-05-08 08:55 47.80043 14.68502 35110 ft 463 kts 144°
2026-05-08 08:56 47.75135 14.74698 35114 ft 462 kts 144°
2026-05-08 08:56 47.70224 14.80865 35108 ft 462 kts 144°
2026-05-08 08:57 47.65297 14.87024 35098 ft 464 kts 145°
2026-05-08 08:57 47.60352 14.93208 35111 ft 464 kts 145°
2026-05-08 08:58 47.55418 14.99375 35113 ft 464 kts 145°
2026-05-08 08:58 47.50478 15.05524 35117 ft 464 kts 146°
2026-05-08 08:59 47.45531 15.11671 35123 ft 464 kts 146°
2026-05-08 08:59 47.40568 15.17816 35110 ft 467 kts 146°
2026-05-08 09:00 47.35584 15.23978 35116 ft 467 kts 146°
2026-05-08 09:00 47.30643 15.30068 35114 ft 466 kts 146°
2026-05-08 09:01 47.25646 15.36187 35116 ft 466 kts 147°
2026-05-08 09:01 47.20668 15.42300 35105 ft 466 kts 146°
2026-05-08 09:02 47.15685 15.48404 35092 ft 467 kts 147°
2026-05-08 09:02 47.10691 15.54486 35106 ft 466 kts 147°
2026-05-08 09:03 47.05694 15.60583 35109 ft 466 kts 147°
2026-05-08 09:03 47.00732 15.66605 35108 ft 466 kts 147°
2026-05-08 09:04 46.95734 15.72660 35111 ft 466 kts 147°
2026-05-08 09:04 46.90723 15.78704 35094 ft 467 kts 147°
2026-05-08 09:05 46.85726 15.84730 35108 ft 465 kts 147°
2026-05-08 09:05 46.80731 15.90728 35110 ft 465 kts 147°
2026-05-08 09:06 46.75725 15.96700 35105 ft 465 kts 147°
2026-05-08 09:06 46.70706 16.02667 35109 ft 465 kts 147°
2026-05-08 09:07 46.65713 16.08645 35083 ft 464 kts 147°
2026-05-08 09:07 46.60747 16.14534 35100 ft 459 kts 147°
2026-05-08 09:08 46.55808 16.20344 35106 ft 460 kts 147°
2026-05-08 09:08 46.50849 16.26229 35107 ft 460 kts 147°
2026-05-08 09:09 46.45905 16.32133 35101 ft 461 kts 147°
2026-05-08 09:09 46.40934 16.38008 35092 ft 461 kts 147°
2026-05-08 09:10 46.35973 16.43851 35103 ft 459 kts 147°
2026-05-08 09:10 46.31012 16.49658 35105 ft 459 kts 147°
2026-05-08 09:11 46.26042 16.55468 35107 ft 459 kts 147°
2026-05-08 09:11 46.21079 16.61267 35094 ft 460 kts 147°
2026-05-08 09:12 46.16110 16.67063 35105 ft 459 kts 147°
2026-05-08 09:12 46.11157 16.72808 35106 ft 455 kts 147°
2026-05-08 09:13 46.06220 16.78528 35106 ft 455 kts 147°
2026-05-08 09:13 46.01279 16.84224 35103 ft 455 kts 147°
2026-05-08 09:14 45.96344 16.89915 35102 ft 455 kts 147°
2026-05-08 09:14 45.91404 16.95601 35107 ft 455 kts 147°
2026-05-08 09:15 45.86494 17.01236 35102 ft 455 kts 147°
2026-05-08 09:15 45.81555 17.06912 35105 ft 455 kts 147°
2026-05-08 09:16 45.76599 17.12569 35094 ft 455 kts 147°
2026-05-08 09:16 45.71792 17.18527 35103 ft 459 kts 142°
2026-05-08 09:17 45.67089 17.24697 35106 ft 459 kts 142°
2026-05-08 09:17 45.62380 17.30871 35097 ft 459 kts 142°
2026-05-08 09:18 45.57664 17.37013 35108 ft 459 kts 143°
2026-05-08 09:18 45.52944 17.43156 35106 ft 459 kts 142°
2026-05-08 09:19 45.48223 17.49283 35101 ft 459 kts 143°
2026-05-08 09:19 45.43521 17.55371 35101 ft 459 kts 143°
2026-05-08 09:20 45.38764 17.61512 35105 ft 459 kts 143°
2026-05-08 09:20 45.34048 17.67576 35084 ft 460 kts 143°
2026-05-08 09:21 45.29301 17.73671 35096 ft 460 kts 143°
2026-05-08 09:23 45.12688 17.94923 35084 ft 459 kts 143°
2026-05-08 09:23 45.07936 18.00959 35093 ft 459 kts 143°
2026-05-08 09:24 45.03181 18.06989 35095 ft 459 kts 143°
2026-05-08 09:24 44.98427 18.13002 35099 ft 459 kts 143°
2026-05-08 09:25 44.93674 18.18999 35097 ft 458 kts 143°
2026-05-08 09:25 44.88920 18.24989 35083 ft 456 kts 143°
2026-05-08 09:26 44.84212 18.30915 35091 ft 453 kts 143°
2026-05-08 09:26 44.79500 18.36824 35094 ft 453 kts 143°
2026-05-08 09:27 44.74793 18.42707 35104 ft 453 kts 143°
2026-05-08 09:27 44.70087 18.48590 35069 ft 452 kts 143°
2026-05-08 09:28 44.65377 18.54452 35092 ft 452 kts 143°
2026-05-08 09:28 44.60671 18.60300 35086 ft 450 kts 143°
2026-05-08 09:29 44.56005 18.66086 35083 ft 450 kts 143°
2026-05-08 09:29 44.51308 18.71896 35081 ft 450 kts 143°
2026-05-08 09:30 44.46608 18.77702 35098 ft 450 kts 143°
2026-05-08 09:30 44.41898 18.83490 35097 ft 450 kts 143°
2026-05-08 09:31 44.37994 18.88286 35098 ft 449 kts 143°
2026-05-08 09:31 44.33308 18.94040 35098 ft 448 kts 143°
2026-05-08 09:32 44.28626 18.99781 35095 ft 447 kts 143°
2026-05-08 09:32 44.23955 19.05487 35100 ft 445 kts 143°
2026-05-08 09:33 44.19278 19.11174 35096 ft 446 kts 143°
2026-05-08 09:33 44.14605 19.16850 35098 ft 446 kts 143°
2026-05-08 09:34 44.09930 19.22482 35095 ft 443 kts 144°
2026-05-08 09:34 44.05243 19.28050 35092 ft 442 kts 144°
2026-05-08 09:35 44.00594 19.33579 35088 ft 442 kts 144°
2026-05-08 09:35 43.95928 19.39124 35084 ft 442 kts 144°
2026-05-08 09:36 43.91248 19.44677 35084 ft 443 kts 144°
2026-05-08 09:36 43.86559 19.50213 35074 ft 440 kts 144°
2026-05-08 09:37 43.81900 19.55711 35078 ft 440 kts 144°
2026-05-08 09:37 43.77240 19.61190 35073 ft 439 kts 144°
2026-05-08 09:38 43.72577 19.66665 35071 ft 439 kts 144°
2026-05-08 09:38 43.67909 19.72142 35058 ft 440 kts 144°
2026-05-08 09:39 43.63458 19.77989 35056 ft 442 kts 140°
2026-05-08 09:39 43.59060 19.83936 35062 ft 442 kts 140°
2026-05-08 09:40 43.54695 19.89825 35058 ft 442 kts 140°
2026-05-08 09:40 43.50294 19.95751 35052 ft 443 kts 140°
2026-05-08 09:41 43.45884 20.01658 35051 ft 443 kts 140°
2026-05-08 09:41 43.41466 20.07577 35049 ft 443 kts 140°
2026-05-08 09:42 43.37050 20.13472 35050 ft 443 kts 140°
2026-05-08 09:42 43.32618 20.19383 35051 ft 444 kts 140°
2026-05-08 09:43 43.28176 20.25293 35045 ft 445 kts 140°
2026-05-08 09:43 43.23722 20.31197 35054 ft 445 kts 140°
2026-05-08 09:44 43.19279 20.37100 35058 ft 445 kts 140°
2026-05-08 09:44 43.14819 20.42988 35056 ft 445 kts 140°
2026-05-08 09:45 43.10360 20.48866 35044 ft 445 kts 140°
2026-05-08 09:45 43.05902 20.54728 35059 ft 444 kts 140°
2026-05-08 09:46 43.01471 20.60549 35063 ft 444 kts 140°
2026-05-08 09:46 42.97012 20.66402 35065 ft 445 kts 140°
2026-05-08 09:47 42.92541 20.72239 35061 ft 444 kts 140°
2026-05-08 09:47 42.88074 20.78066 35064 ft 444 kts 140°
2026-05-08 09:48 42.83601 20.83889 35070 ft 445 kts 140°
2026-05-08 09:48 42.79128 20.89704 35076 ft 444 kts 140°
2026-05-08 09:49 42.74661 20.95502 35081 ft 443 kts 140°
2026-05-08 09:49 42.70193 21.01283 35081 ft 443 kts 140°
2026-05-08 09:50 42.65721 21.07060 35084 ft 443 kts 140°
2026-05-08 09:50 42.61247 21.12832 35076 ft 442 kts 140°
2026-05-08 09:51 42.56829 21.18508 35077 ft 440 kts 140°
2026-05-08 09:51 42.52386 21.24210 35083 ft 440 kts 140°
2026-05-08 09:52 42.47929 21.29922 35078 ft 440 kts 140°
2026-05-08 09:52 42.43477 21.35619 35071 ft 440 kts 140°
2026-05-08 09:53 42.39010 21.41305 35066 ft 440 kts 140°
2026-05-08 09:53 42.34588 21.46931 35085 ft 439 kts 140°
2026-05-08 09:54 42.30143 21.52581 35089 ft 439 kts 140°
2026-05-08 09:54 42.25682 21.58223 35096 ft 439 kts 140°
2026-05-08 09:55 42.21259 21.63909 35096 ft 439 kts 139°
2026-05-08 09:55 42.16914 21.69700 35092 ft 439 kts 139°
2026-05-08 09:56 42.12571 21.75485 35093 ft 439 kts 139°
2026-05-08 09:56 42.08213 21.81260 35071 ft 440 kts 139°
2026-05-08 09:57 42.01657 21.89922 35089 ft 441 kts 139°
2026-05-08 09:57 41.97281 21.95688 35092 ft 441 kts 139°
2026-05-08 09:58 41.92898 22.01450 35097 ft 440 kts 139°
2026-05-08 09:58 41.88517 22.07193 35099 ft 440 kts 139°
2026-05-08 09:59 41.84128 22.12930 35095 ft 440 kts 139°
2026-05-08 09:59 41.79724 22.18682 35097 ft 443 kts 139°
2026-05-08 10:00 41.75341 22.24400 35105 ft 443 kts 139°
2026-05-08 10:00 41.70889 22.30190 35103 ft 443 kts 139°
2026-05-08 10:01 41.66493 22.35900 35105 ft 443 kts 139°
2026-05-08 10:01 41.62039 22.41674 35103 ft 444 kts 139°
2026-05-08 10:02 41.57632 22.47382 35095 ft 444 kts 139°
2026-05-08 10:02 41.53161 22.53152 35104 ft 448 kts 139°
2026-05-08 10:03 41.48675 22.58924 35104 ft 448 kts 139°
2026-05-08 10:03 41.44190 22.64703 35115 ft 447 kts 139°
2026-05-08 10:04 41.39705 22.70456 35116 ft 447 kts 139°
2026-05-08 10:04 41.35221 22.76208 35116 ft 448 kts 140°
2026-05-08 10:05 41.30560 22.81672 35101 ft 447 kts 145°
2026-05-08 10:05 41.25700 22.86812 35117 ft 450 kts 146°
2026-05-08 10:06 41.20791 22.91990 35115 ft 450 kts 146°
2026-05-08 10:06 41.15887 22.97167 35113 ft 450 kts 146°
2026-05-08 10:07 41.10978 23.02336 35115 ft 450 kts 146°
2026-05-08 10:07 41.06074 23.07497 35114 ft 451 kts 146°
2026-05-08 10:08 41.01149 23.12673 35098 ft 453 kts 146°
2026-05-08 10:08 40.96194 23.17863 35110 ft 454 kts 146°
2026-05-08 10:09 40.91235 23.23061 35109 ft 455 kts 146°
2026-05-08 10:09 40.86268 23.28236 35120 ft 455 kts 147°
2026-05-08 10:10 40.81325 23.33383 35119 ft 455 kts 146°
2026-05-08 10:10 40.76353 23.38552 35123 ft 454 kts 147°
2026-05-08 10:11 40.71382 23.43710 35107 ft 455 kts 147°
2026-05-08 10:11 40.66375 23.48891 35122 ft 458 kts 147°
2026-05-08 10:12 40.61362 23.54075 35131 ft 458 kts 147°
2026-05-08 10:12 40.56354 23.59246 35134 ft 457 kts 147°
2026-05-08 10:13 40.51346 23.64401 35135 ft 457 kts 148°
2026-05-08 10:13 40.46344 23.69544 35141 ft 456 kts 148°
2026-05-08 10:14 40.41336 23.74674 35140 ft 456 kts 148°
2026-05-08 10:14 40.36322 23.79814 35143 ft 459 kts 148°
2026-05-08 10:15 40.31326 23.84916 35144 ft 458 kts 149°
2026-05-08 10:15 40.26285 23.90046 35151 ft 458 kts 149°
2026-05-08 10:16 40.21251 23.95166 35152 ft 458 kts 149°
2026-05-08 10:16 40.16220 24.00282 35156 ft 458 kts 149°
2026-05-08 10:17 40.12024 24.04519 35151 ft 458 kts 149°
2026-05-08 10:17 40.06975 24.09614 35150 ft 459 kts 149°
2026-05-08 10:18 40.01922 24.14717 35156 ft 460 kts 149°
2026-05-08 10:18 39.96874 24.19819 35156 ft 458 kts 150°
2026-05-08 10:19 39.91818 24.24908 35158 ft 458 kts 150°
2026-05-08 10:20 39.84253 24.32508 35164 ft 458 kts 150°
2026-05-08 10:20 39.79211 24.37567 35162 ft 458 kts 150°
2026-05-08 10:21 39.74145 24.42631 35147 ft 460 kts 151°
2026-05-08 10:21 39.69097 24.47666 35164 ft 461 kts 151°
2026-05-08 10:22 39.64014 24.52729 35155 ft 460 kts 151°
2026-05-08 10:22 39.58930 24.57785 35169 ft 460 kts 151°
2026-05-08 10:23 39.53861 24.62823 35173 ft 460 kts 151°
2026-05-08 10:23 39.48781 24.67860 35166 ft 460 kts 151°
2026-05-08 10:24 39.43717 24.72987 35167 ft 464 kts 150°
2026-05-08 10:24 39.38627 24.78124 35162 ft 464 kts 150°
2026-05-08 10:25 39.33543 24.83256 35161 ft 463 kts 150°
2026-05-08 10:25 39.28471 24.88388 35145 ft 459 kts 150°
2026-05-08 10:25 39.25967 24.90901 34857 ft 460 kts 151°
2026-05-08 10:26 39.23428 24.93454 34614 ft 463 kts 150°
2026-05-08 10:26 39.20928 24.95980 34362 ft 462 kts 151°
2026-05-08 10:26 39.18392 24.98536 34118 ft 463 kts 151°
2026-05-08 10:26 39.15852 25.01092 33839 ft 463 kts 151°
2026-05-08 10:27 39.13309 25.03637 33533 ft 465 kts 151°
2026-05-08 10:27 39.10751 25.06191 33266 ft 465 kts 151°
2026-05-08 10:27 39.08195 25.08748 33006 ft 464 kts 151°
2026-05-08 10:27 39.05652 25.11294 32749 ft 462 kts 151°
2026-05-08 10:28 39.03121 25.13828 32490 ft 460 kts 151°
2026-05-08 10:28 39.00604 25.16343 32236 ft 456 kts 152°
2026-05-08 10:28 38.98100 25.18831 31985 ft 456 kts 151°
2026-05-08 10:28 38.95598 25.21323 31727 ft 453 kts 151°
2026-05-08 10:29 38.93111 25.23801 31458 ft 451 kts 151°
2026-05-08 10:29 38.90637 25.26259 31228 ft 449 kts 152°
2026-05-08 10:29 38.88177 25.28699 30976 ft 447 kts 151°
2026-05-08 10:29 38.85725 25.31140 30623 ft 444 kts 152°
2026-05-08 10:30 38.83322 25.33532 30183 ft 441 kts 151°
2026-05-08 10:30 38.80867 25.35968 29633 ft 439 kts 151°
2026-05-08 10:30 38.78485 25.38315 29100 ft 435 kts 151°
2026-05-08 10:30 38.76081 25.40684 28583 ft 436 kts 150°
2026-05-08 10:31 38.73675 25.43050 28095 ft 435 kts 150°
2026-05-08 10:31 38.71293 25.45399 27625 ft 432 kts 150°
2026-05-08 10:31 38.68915 25.47745 27121 ft 429 kts 149°
2026-05-08 10:31 38.66561 25.50082 26625 ft 426 kts 149°
2026-05-08 10:32 38.64218 25.52379 26154 ft 424 kts 149°
2026-05-08 10:32 38.61884 25.54677 25688 ft 422 kts 148°
2026-05-08 10:32 38.59560 25.56956 25241 ft 419 kts 148°
2026-05-08 10:32 38.57250 25.59226 24779 ft 419 kts 148°
2026-05-08 10:33 38.54939 25.61492 24297 ft 419 kts 148°
2026-05-08 10:33 38.52624 25.63752 23820 ft 418 kts 147°
2026-05-08 10:33 38.50324 25.66005 23285 ft 416 kts 146°
2026-05-08 10:33 38.48040 25.68261 22780 ft 414 kts 146°
2026-05-08 10:34 38.45786 25.70473 22282 ft 411 kts 147°
2026-05-08 10:34 38.43520 25.72681 21785 ft 409 kts 147°
2026-05-08 10:34 38.41261 25.74868 21304 ft 404 kts 147°
2026-05-08 10:34 38.39050 25.77023 20822 ft 399 kts 147°
2026-05-08 10:35 38.36859 25.79176 20381 ft 395 kts 147°
2026-05-08 10:35 38.34694 25.81289 19953 ft 390 kts 147°
2026-05-08 10:35 38.32552 25.83380 19544 ft 385 kts 147°
2026-05-08 10:35 38.30443 25.85438 19142 ft 380 kts 147°
2026-05-08 10:36 38.28357 25.87471 18746 ft 375 kts 147°
2026-05-08 10:36 38.26292 25.89475 18346 ft 371 kts 147°
2026-05-08 10:36 38.24290 25.91525 17923 ft 367 kts 144°
2026-05-08 10:36 38.22372 25.93639 17531 ft 362 kts 143°
2026-05-08 10:37 38.20489 25.95738 17145 ft 357 kts 143°
2026-05-08 10:37 38.18632 25.97798 16773 ft 352 kts 143°
2026-05-08 10:37 38.16799 25.99832 16405 ft 346 kts 143°
2026-05-08 10:37 38.14998 26.01829 16064 ft 343 kts 142°
2026-05-08 10:38 38.13204 26.03815 15740 ft 341 kts 142°
2026-05-08 10:38 38.11420 26.05795 15400 ft 339 kts 142°
2026-05-08 10:38 38.09642 26.07759 15091 ft 338 kts 142°
2026-05-08 10:38 38.07893 26.09693 14745 ft 338 kts 142°
2026-05-08 10:39 38.06116 26.11643 14411 ft 337 kts 142°
2026-05-08 10:39 38.04345 26.13584 14085 ft 336 kts 142°
2026-05-08 10:39 38.02586 26.15519 13728 ft 335 kts 142°
2026-05-08 10:39 38.00826 26.17451 13377 ft 333 kts 142°
2026-05-08 10:40 37.99076 26.19373 13039 ft 332 kts 142°
2026-05-08 10:40 37.97337 26.21284 12701 ft 330 kts 142°
2026-05-08 10:40 37.95600 26.23196 12359 ft 329 kts 142°
2026-05-08 10:40 37.93876 26.25086 12021 ft 328 kts 142°
2026-05-08 10:41 37.92157 26.26969 11692 ft 326 kts 142°
2026-05-08 10:41 37.90445 26.28838 11367 ft 324 kts 142°
2026-05-08 10:41 37.88739 26.30699 11049 ft 321 kts 141°
2026-05-08 10:41 37.87083 26.32528 10827 ft 311 kts 141°
2026-05-08 10:42 37.85482 26.34289 10674 ft 299 kts 142°
2026-05-08 10:42 37.83935 26.35980 10542 ft 288 kts 142°
2026-05-08 10:42 37.82448 26.37612 10361 ft 279 kts 142°
2026-05-08 10:42 37.81012 26.39180 10041 ft 276 kts 143°
2026-05-08 10:43 37.79569 26.40764 9678 ft 274 kts 142°
2026-05-08 10:43 37.78128 26.42342 9331 ft 274 kts 143°
2026-05-08 10:43 37.76681 26.43911 8902 ft 274 kts 143°
2026-05-08 10:43 37.75240 26.45478 8531 ft 272 kts 142°
2026-05-08 10:44 37.73810 26.47030 8220 ft 270 kts 142°
2026-05-08 10:44 37.72389 26.48576 7946 ft 268 kts 142°
2026-05-08 10:44 37.70977 26.50110 7664 ft 267 kts 142°
2026-05-08 10:44 37.69567 26.51645 7370 ft 267 kts 142°
2026-05-08 10:45 37.68160 26.53176 7064 ft 267 kts 142°
2026-05-08 10:45 37.66740 26.54686 6778 ft 266 kts 143°
2026-05-08 10:45 37.65318 26.56188 6488 ft 266 kts 143°
2026-05-08 10:45 37.63914 26.57678 6203 ft 262 kts 142°
2026-05-08 10:46 37.62528 26.59158 5881 ft 261 kts 142°
2026-05-08 10:46 37.61141 26.60626 5570 ft 259 kts 142°
2026-05-08 10:46 37.59783 26.62068 5205 ft 259 kts 142°
2026-05-08 10:46 37.58403 26.63537 4836 ft 259 kts 142°
2026-05-08 10:47 37.57029 26.64998 4481 ft 258 kts 142°
2026-05-08 10:47 37.55663 26.66446 4150 ft 256 kts 142°
2026-05-08 10:47 37.54299 26.67888 3994 ft 256 kts 142°
2026-05-08 10:47 37.53046 26.69483 3959 ft 258 kts 125°
2026-05-08 10:48 37.52442 26.71601 3988 ft 262 kts 95°
2026-05-08 10:48 37.52732 26.73832 3773 ft 259 kts 64°
2026-05-08 10:48 37.53751 26.75641 3592 ft 251 kts 49°
2026-05-08 10:48 37.54901 26.77241 3420 ft 243 kts 47°
2026-05-08 10:49 37.56028 26.78816 3151 ft 239 kts 48°
2026-05-08 10:49 37.57110 26.80359 2964 ft 229 kts 48°
2026-05-08 10:49 37.58150 26.81806 2815 ft 217 kts 47°
2026-05-08 10:49 37.59130 26.83161 2712 ft 198 kts 48°
2026-05-08 10:50 37.59994 26.84386 2589 ft 178 kts 49°
2026-05-08 10:50 37.60814 26.85516 2433 ft 175 kts 44°
2026-05-08 10:50 37.61875 26.86148 2410 ft 173 kts 359°
2026-05-08 10:50 37.62982 26.85664 2458 ft 169 kts 326°
2026-05-08 10:51 37.64016 26.85128 2479 ft 150 kts 347°
2026-05-08 10:51 37.65050 26.85162 2358 ft 148 kts
2026-05-08 10:51 37.66061 26.85302 1895 ft 145 kts
2026-05-08 10:51 37.67063 26.85435 1548 ft 144 kts
2026-05-08 10:52 37.68037 26.85670 1135 ft 142 kts 18°
2026-05-08 10:52 37.68818 26.86381 783 ft 141 kts 60°
2026-05-08 10:52 37.69050 26.87544 524 ft 135 kts 84°
2026-05-08 10:52 37.69062 26.88721 312 ft 133 kts 94°
2026-05-08 10:53 37.69000 26.89881 101 ft 132 kts 96°
2026-05-08 10:53 37.68928 26.91003 34 ft 119 kts 95°
2026-05-08 10:53 37.68893 26.91605 34 ft 11 kts 95°
2026-05-08 10:53 37.68925 26.91688 34 ft 13 kts
2026-05-08 10:54 37.68987 26.91613 34 ft 15 kts 280°
2026-05-08 10:54 37.69002 26.91511 34 ft 11 kts 281°
2026-05-08 10:54 37.68996 26.91406 34 ft 13 kts 264°
2026-05-08 10:54 37.68997 26.91309 34 ft 7 kts 274°
2026-05-08 10:55 37.69029 26.91277 34 ft 8 kts 358°
2026-05-08 10:55 37.69058 26.91280 34 ft 2 kts
2026-05-08 10:55 37.69060 26.91280 34 ft 1 kts
2026-05-08 10:55 37.69064 26.91280 34 ft 0 kts